| time (UTC) | temp F | wind direction | speed MPH | gust MPH | rain 1hr in | rain 24hr in | rain mn in | humidity % | barometer mb |
| 20260906111513 | 70 | 13 | 0.0 | 0.0 | 0.00 | 0.10 | 0.00 | 91 | 1012.1 |
| 20260906110018 | 70 | 32 | 0.0 | 0.0 | 0.00 | 0.10 | 0.00 | 91 | 1012.2 |
| 20260906104517 | 71 | 32 | 0.0 | 0.0 | 0.00 | 0.10 | 0.00 | 91 | 1012.2 |
| 20260906103010 | 71 | 12 | 0.0 | 0.0 | 0.00 | 0.10 | 0.00 | 91 | 1012.2 |
| 20260906101510 | 71 | 38 | 0.0 | 0.0 | 0.00 | 0.10 | 0.00 | 91 | 1012.0 |
| 20260906100010 | 71 | 314 | 0.0 | 0.0 | 0.00 | 0.10 | 0.00 | 91 | 1012.0 |
| 20260906094524 | 72 | 16 | 0.0 | 0.0 | 0.00 | 0.10 | 0.00 | 91 | 1012.0 |
| 20260906093012 | 72 | 360 | 0.0 | 0.0 | 0.00 | 0.10 | 0.00 | 91 | 1012.0 |
| 20260906091508 | 72 | 42 | 0.0 | 0.0 | 0.00 | 0.10 | 0.00 | 92 | 1012.0 |
| 20260906090007 | 72 | 55 | 0.0 | 0.0 | 0.00 | 0.10 | 0.00 | 91 | 1011.8 |
| 20260906084506 | 71 | 53 | 0.0 | 0.0 | 0.00 | 0.10 | 0.00 | 91 | 1011.8 |
| 20260906083006 | 71 | 9 | 0.0 | 0.0 | 0.00 | 0.10 | 0.00 | 91 | 1011.8 |
| 20260906081515 | 71 | 40 | 0.0 | 0.0 | 0.00 | 0.10 | 0.00 | 91 | 1011.6 |
| 20260906080005 | 71 | 65 | 0.0 | 0.0 | 0.00 | 0.10 | 0.00 | 90 | 1011.7 |
| 20260906074503 | 70 | 36 | 0.0 | 0.0 | 0.00 | 0.10 | 0.00 | 90 | 1011.6 |
| 20260906073001 | 71 | 30 | 0.0 | 0.0 | 0.00 | 0.10 | 0.00 | 89 | 1011.6 |
| 20260906071600 | 71 | 13 | 0.0 | 0.0 | 0.00 | 0.10 | 0.00 | 89 | 1011.6 |
| 20260906070058 | 72 | 31 | 0.0 | 0.0 | 0.00 | 0.10 | 0.00 | 88 | 1011.6 |
| 20260906064554 | 72 | 25 | 0.0 | 0.0 | 0.00 | 0.10 | 0.00 | 88 | 1011.8 |
| 20260906063052 | 73 | 10 | 0.0 | 0.0 | 0.00 | 0.10 | 0.00 | 88 | 1011.8 |
| 20260906061551 | 73 | 41 | 0.0 | 0.0 | 0.00 | 0.10 | 0.00 | 87 | 1012.1 |
| 20260906060048 | 74 | 25 | 0.0 | 0.0 | 0.00 | 0.10 | 0.00 | 87 | 1011.9 |
| 20260906054545 | 74 | 5 | 0.0 | 0.0 | 0.00 | 0.10 | 0.00 | 86 | 1011.8 |
| 20260906053044 | 75 | 23 | 0.0 | 0.0 | 0.00 | 0.10 | 0.00 | 86 | 1011.9 |
| 20260906051540 | 76 | 13 | 0.0 | 0.0 | 0.00 | 0.10 | 0.00 | 85 | 1011.8 |
| 20260906050038 | 76 | 26 | 0.0 | 0.0 | 0.00 | 0.10 | 0.10 | 84 | 1011.8 |
| 20260906044542 | 77 | 63 | 0.0 | 0.0 | 0.00 | 0.10 | 0.10 | 83 | 1011.7 |
| 20260906043043 | 78 | 46 | 0.0 | 0.0 | 0.00 | 0.10 | 0.10 | 81 | 1011.5 |
| 20260906041538 | 78 | 52 | 0.0 | 0.0 | 0.00 | 0.10 | 0.10 | 81 | 1011.5 |
| 20260906040037 | 79 | 34 | 0.0 | 1.0 | 0.00 | 0.10 | 0.10 | 81 | 1011.1 |
| 20260906034541 | 79 | 270 | 0.0 | 0.0 | 0.00 | 0.10 | 0.10 | 81 | 1011.1 |
| 20260906033033 | 80 | 5 | 0.0 | 2.0 | 0.00 | 0.10 | 0.10 | 80 | 1011.1 |
| 20260906031545 | 81 | 9 | 0.0 | 0.0 | 0.00 | 0.10 | 0.10 | 80 | 1010.8 |
| 20260906030033 | 81 | 71 | 0.0 | 2.0 | 0.00 | 0.10 | 0.10 | 80 | 1010.8 |
| 20260906024531 | 82 | 70 | 0.0 | 0.0 | 0.00 | 0.10 | 0.10 | 81 | 1010.7 |
| 20260906023032 | 83 | 24 | 0.0 | 0.0 | 0.00 | 0.10 | 0.10 | 80 | 1010.5 |
| 20260906021531 | 83 | 13 | 0.0 | 0.0 | 0.00 | 0.10 | 0.10 | 79 | 1010.0 |
| 20260906020040 | 84 | 46 | 0.0 | 0.0 | 0.00 | 0.10 | 0.10 | 78 | 1009.7 |
| 20260906014534 | 84 | 72 | 0.0 | 0.0 | 0.00 | 0.10 | 0.10 | 78 | 1009.6 |
| 20260906013029 | 85 | 10 | 0.0 | 0.0 | 0.00 | 0.10 | 0.10 | 77 | 1009.6 |
| 20260906011529 | 85 | 343 | 0.0 | 0.0 | 0.00 | 0.10 | 0.10 | 76 | 1009.4 |
| 20260906010029 | 86 | 343 | 0.0 | 0.0 | 0.00 | 0.10 | 0.10 | 74 | 1009.3 |
| 20260906004528 | 87 | 343 | 0.0 | 0.0 | 0.00 | 0.10 | 0.10 | 72 | 1009.1 |
| 20260906003029 | 88 | 343 | 0.0 | 0.0 | 0.00 | 0.10 | 0.10 | 69 | 1009.0 |
| 20260906001532 | 88 | 343 | 0.0 | 0.0 | 0.00 | 0.10 | 0.10 | 67 | 1009.0 |
| 20260906000027 | 89 | 343 | 0.0 | 0.0 | 0.00 | 0.10 | 0.10 | 66 | 1009.0 |
| 20260905234526 | 90 | 346 | 0.0 | 0.0 | 0.00 | 0.10 | 0.10 | 64 | 1009.1 |
| 20260905233031 | 91 | 355 | 0.0 | 0.0 | 0.00 | 0.10 | 0.10 | 63 | 1009.1 |
| 20260905231526 | 92 | 22 | 0.0 | 0.0 | 0.00 | 0.10 | 0.10 | 61 | 1009.0 |
| 20260905230025 | 93 | 304 | 0.0 | 0.0 | 0.00 | 0.10 | 0.10 | 60 | 1008.8 |
| 20260905224524 | 93 | 304 | 0.0 | 0.0 | 0.00 | 0.10 | 0.10 | 58 | 1008.7 |
| 20260905223034 | 94 | 13 | 0.0 | 1.0 | 0.00 | 0.10 | 0.10 | 57 | 1008.7 |
| 20260905221537 | 95 | 315 | 0.0 | 0.0 | 0.00 | 0.10 | 0.10 | 55 | 1008.6 |
| 20260905220026 | 95 | 271 | 0.0 | 0.0 | 0.00 | 0.10 | 0.10 | 53 | 1008.6 |
| 20260905214521 | 95 | 271 | 0.0 | 0.0 | 0.00 | 0.10 | 0.10 | 53 | 1008.7 |
| 20260905213021 | 94 | 271 | 0.0 | 0.0 | 0.00 | 0.10 | 0.10 | 56 | 1008.8 |
| 20260905211536 | 93 | 271 | 0.0 | 0.0 | 0.00 | 0.10 | 0.10 | 56 | 1008.8 |
| 20260905210018 | 92 | 229 | 0.0 | 0.0 | 0.00 | 0.10 | 0.10 | 58 | 1009.0 |
| 20260905204517 | 91 | 227 | 0.0 | 0.0 | 0.00 | 0.10 | 0.10 | 59 | 1009.2 |
| 20260905203014 | 88 | 229 | 0.0 | 0.0 | 0.00 | 0.10 | 0.10 | 67 | 1009.4 |
| 20260905201512 | 86 | 221 | 0.0 | 0.0 | 0.00 | 0.10 | 0.10 | 68 | 1009.5 |
| 20260905200014 | 85 | 203 | 0.0 | 0.0 | 0.00 | 0.10 | 0.10 | 71 | 1009.8 |
| 20260905194509 | 82 | 64 | 0.0 | 0.0 | 0.10 | 0.10 | 0.10 | 75 | 1009.9 |
| 20260905193008 | 80 | 49 | 0.0 | 0.0 | 0.10 | 0.10 | 0.10 | 79 | 1010.1 |
| 20260905191508 | 79 | 118 | 0.0 | 0.0 | 0.10 | 0.10 | 0.10 | 79 | 1010.3 |
| 20260905190007 | 83 | 113 | 0.0 | 1.0 | 0.10 | 0.10 | 0.10 | 70 | 1010.8 |
| 20260905184506 | 92 | 277 | 0.0 | 5.0 | 0.00 | 0.00 | 0.00 | 56 | 1010.2 |
| 20260905183006 | 96 | 271 | 0.0 | 0.0 | 0.00 | 0.00 | 0.00 | 50 | 1010.1 |
| 20260905181504 | 97 | 227 | 0.0 | 0.0 | 0.00 | 0.00 | 0.00 | 50 | 1010.1 |
| 20260905180001 | 96 | 215 | 0.0 | 0.0 | 0.00 | 0.00 | 0.00 | 50 | 1010.2 |
| 20260905174604 | 96 | 281 | 0.0 | 0.0 | 0.00 | 0.00 | 0.00 | 51 | 1010.3 |
| 20260905173057 | 96 | 288 | 0.0 | 0.0 | 0.00 | 0.00 | 0.00 | 52 | 1010.6 |
| 20260905171605 | 95 | 220 | 0.0 | 0.0 | 0.00 | 0.00 | 0.00 | 52 | 1010.6 |
| 20260905170058 | 95 | 350 | 0.0 | 0.0 | 0.00 | 0.00 | 0.00 | 52 | 1010.7 |
| 20260905164552 | 94 | 163 | 0.0 | 0.0 | 0.00 | 0.00 | 0.00 | 52 | 1011.0 |
| 20260905163049 | 94 | 333 | 0.0 | 0.0 | 0.00 | 0.00 | 0.00 | 53 | 1011.1 |
| 20260905161548 | 94 | 269 | 0.0 | 0.0 | 0.00 | 0.00 | 0.00 | 53 | 1011.0 |
| 20260905160051 | 93 | 334 | 0.0 | 0.0 | 0.00 | 0.00 | 0.00 | 56 | 1011.0 |
| 20260905154552 | 93 | 300 | 0.0 | 0.0 | 0.00 | 0.00 | 0.00 | 58 | 1011.0 |
| 20260905153042 | 92 | 290 | 0.0 | 0.0 | 0.00 | 0.00 | 0.00 | 56 | 1011.0 |
| 20260905151541 | 92 | 260 | 0.0 | 0.0 | 0.00 | 0.00 | 0.00 | 60 | 1010.9 |
| 20260905150037 | 90 | 261 | 0.0 | 0.0 | 0.00 | 0.00 | 0.00 | 65 | 1011.1 |
| 20260905144546 | 89 | 258 | 0.0 | 0.0 | 0.00 | 0.00 | 0.00 | 67 | 1011.1 |
| 20260905143030 | 88 | 277 | 0.0 | 0.0 | 0.00 | 0.00 | 0.00 | 68 | 1011.1 |
| 20260905141526 | 87 | 277 | 0.0 | 0.0 | 0.00 | 0.00 | 0.00 | 71 | 1011.1 |
| 20260905140027 | 85 | 223 | 0.0 | 0.0 | 0.00 | 0.00 | 0.00 | 71 | 1011.1 |
| 20260905134517 | 83 | 236 | 0.0 | 0.0 | 0.00 | 0.00 | 0.00 | 77 | 1011.3 |
| 20260905133013 | 81 | 223 | 0.0 | 0.0 | 0.00 | 0.00 | 0.00 | 80 | 1011.4 |
| 20260905131510 | 79 | 223 | 0.0 | 0.0 | 0.00 | 0.00 | 0.00 | 81 | 1011.4 |
| 20260905130006 | 78 | 223 | 0.0 | 0.0 | 0.00 | 0.00 | 0.00 | 85 | 1011.6 |
| 20260905124506 | 76 | 223 | 0.0 | 0.0 | 0.00 | 0.00 | 0.00 | 87 | 1011.3 |
| 20260905123003 | 76 | 223 | 0.0 | 0.0 | 0.00 | 0.00 | 0.00 | 87 | 1011.3 |
| 20260905121504 | 75 | 223 | 0.0 | 0.0 | 0.00 | 0.00 | 0.00 | 87 | 1011.2 |
| 20260905120101 | 75 | 223 | 0.0 | 0.0 | 0.00 | 0.00 | 0.00 | 86 | 1011.1 |
| 20260905114610 | 75 | 223 | 0.0 | 0.0 | 0.00 | 0.00 | 0.00 | 85 | 1011.1 |
| 20260905113058 | 76 | 223 | 0.0 | 0.0 | 0.00 | 0.00 | 0.00 | 85 | 1011.0 |